User: anonymous   Login
Location: Unspecified
(0.0000°N, 0.0000°E)
Time: 23:34:41
(UTC+00:00)
Language:

SAR-Lupe-3 - Orbit

View from above orbital plane
View from above orbital plane
View from above satellite
View from above satellite

Ground track
Ground track

The orbit data is extracted from the following two-line orbital elements,

1 32283U 07053A   18133.08283437 0.00000900  00000-0  33386-4 0    03
2 32283  98.1551 347.7374 0002009  10.3800 349.6199 15.27629204    06
Epoch (UTC): 13 May 2018 01:59:16
Eccentricity: 0.0002009
inclination: 98.1551°
perigee height: 481 km
apogee height: 484 km
right ascension of ascending node: 347.7374°
argument of perigee: 10.3800°
revolutions per day: 15.27629204
mean anomaly at epoch: 349.6199°
orbit number at epoch: 0

The dashed part of the orbit path shows where the satellite is in the earth's shadow,  

DLR